Location: Kroczyce Okupne
(50.5700°N, 19.5808°E)
Time: 14:24:48
(UTC+00:00)

Daily predictions for brighter satellites

Satellite Brightness Start Highest point End
(mag) Time Altitude Azimuth Time Altitude Azimuth Time Altitude Azimuth
Cosmos 1459 Rocket 4.3 18:42:06 10° SSE 18:48:00 46° E 18:53:50 10° NNE
ATLAS 2AS CENTAUR R/B 2.7 18:44:04 10° SW 18:51:01 82° SE 18:57:53 10° NE
Cosmos 2100 Rocket 4.2 18:45:19 10° SSE 18:51:18 53° E 18:57:25 10° NNE
SL-24 R/B 4.1 18:47:06 10° NNE 18:51:20 74° ESE 18:55:43 10° S
Cosmos 44 Rocket 4.4 18:47:53 10° SSE 18:51:58 25° ESE 18:56:10 10° ENE
Cosmos 1743 3.6 18:51:21 10° NNE 18:53:46 21° ENE 18:56:10 10° SE
BREEZE-M DEB (TANK) 3.2 18:50:18 10° SW 18:54:20 24° SSE 18:56:29 10° ESE
Ariane Rocket 4.4 18:53:01 10° ESE 18:57:04 25° ENE 19:01:08 10° N
ISS -1.9 18:56:31 10° SSE 18:58:11 13° SE 18:59:52 10° ESE
ADEOS 3.6 18:53:45 10° SSE 18:58:58 85° ENE 19:04:13 10° NNW
Cosmos 2322 Rocket 4.4 18:57:20 10° N 19:00:33 15° NNE 19:03:44 10° ENE
Spot 2 Rocket 3.6 18:57:49 10° SSE 19:02:44 60° ENE 19:07:42 10° N
Cosmos 2082 Rocket 3.5 19:00:36 10° SE 19:04:36 20° E 19:08:38 10° NE
Cosmos 2151 Rocket 3.6 19:02:42 10° S 19:07:04 90° ENE 19:11:29 10° N
SL-4 R/B 2.8 19:04:17 10° W 19:07:48 36° SSW 19:11:18 11° SE
Okean 2 Rocket 3.1 19:05:02 10° S 19:09:30 73° E 19:13:59 10° NNE
BREEZE-M DEB (TANK) 4.4 19:07:57 10° WSW 19:12:54 83° SSE 19:35:14 10° ENE
Cosmos 1371 Rocket 4.4 19:09:15 10° SSW 19:14:32 71° WNW 19:19:54 10° NNE
Cosmos 1536 Rocket 4.0 19:10:18 10° NNW 19:14:36 62° W 19:18:54 10° S
IRS-1A Rocket 4.5 19:09:36 10° SSE 19:15:24 85° WSW 19:21:20 10° NNW
Timation 1 Rocket 4.5 19:11:24 10° S 19:17:14 55° ESE 19:23:05 10° NE
Cosmos 292 Rocket 4.0 19:13:26 10° NNW 19:18:12 70° WSW 19:22:55 10° SSE
Tsikada Rocket 4.4 19:12:37 10° N 19:18:34 45° ENE 19:24:01 12° SE
CZ-4C R/B 2.0 19:18:32 10° SSW 19:22:29 43° ESE 19:27:27 10° NE
Cosmos 2228 3.9 19:19:24 12° SSE 19:22:39 29° E 19:26:15 10° NNE
Cosmos 1725 Rocket 4.1 19:17:50 10° S 19:23:57 58° E 19:30:05 10° NNE
Cosmos 1697 Rocket 3.2 19:18:37 10° NW 19:24:07 56° WSW 19:29:34 10° S
Okean O Rocket 1.5 19:20:27 10° SSE 19:24:45 86° ENE 19:29:05 10° NNW
USA 305 3.1 19:21:24 10° WNW 19:25:28 60° NNE 19:29:06 10° E
ATLAS 3B R/B 3.2 19:18:54 10° NW 19:26:39 69° SW 19:33:32 12° SSE
ERS-1 Rocket 4.0 19:22:06 10° S 19:26:53 45° W 19:31:43 10° NNW
Cosmos 1741 Rocket 4.1 19:22:29 10° NNW 19:27:50 90° WSW 19:32:45 12° SSE
SL-16 R/B 3.7 19:23:13 10° NNW 19:28:00 27° NE 19:32:47 10° E
Cosmos 1452 Rocket 3.7 19:23:36 10° S 19:28:38 50° ESE 19:33:41 10° NNE
Helios 1A Rocket 3.7 19:26:02 10° N 19:29:03 41° WNW 19:32:02 10° SW
USA 186 1.2 19:28:18 14° SSE 19:30:27 88° WSW 19:33:10 10° NNW
Cosmos 1867 4.1 19:25:44 10° SW 19:31:08 65° NW 19:36:36 10° NE
Okean-O 2.7 19:33:12 10° S 19:37:34 75° WSW 19:41:58 10° NNW
Cosmos 1331 Rocket 3.9 19:32:43 10° SSW 19:37:57 82° ESE 19:43:12 10° NNE
Cosmos 968 Rocket 4.3 19:33:37 10° NNW 19:38:38 47° WSW 19:43:38 10° S
Cosmos 2333 Rocket 3.6 19:35:51 10° NNW 19:40:48 29° NE 19:45:39 10° ESE
Cosmos 1892 Rocket 3.5 19:38:17 10° N 19:42:39 87° W 19:46:26 13° S
CZ-4B R/B 3.6 19:39:17 16° SE 19:42:55 57° ENE 19:47:37 10° N
Cosmos 2016 Rocket 4.0 19:36:49 10° S 19:43:04 73° E 19:49:16 10° NNE
Cosmos 2173 Rocket 4.3 19:39:23 10° SSW 19:45:29 70° WNW 19:51:43 10° N
Cosmos 1302 Rocket 4.3 19:41:35 10° S 19:46:28 44° ESE 19:51:22 10° NE
USA 245 4.3 19:42:23 14° SSE 19:47:33 81° ENE 19:53:24 10° NNW
Cosmos 1455 Rocket 3.0 19:43:44 10° S 19:48:09 83° E 19:52:34 10° NNE
Cosmos 2061 Rocket 4.2 19:44:57 12° SSE 19:50:34 54° E 19:56:40 10° NNE
SL-08 R/B 3.9 19:46:02 10° N 19:50:51 63° WNW 19:55:35 10° SSW
NOSS 3-3 (A) 4.5 19:47:13 13° SSE 19:50:57 29° ESE 19:55:59 10° ENE
Cosmos 1980 Rocket 2.4 19:46:36 10° NNW 19:52:18 72° WSW 19:56:48 17° SSE
Okean 1 Rocket 4.1 19:50:04 10° SSW 19:54:17 46° WNW 19:58:35 10° N
Cosmos 724 4.4 19:48:28 10° SSW 19:54:21 57° ESE 20:00:09 10° NE
SPOT 3 Rocket 3.5 19:53:56 17° SSE 19:58:02 88° ENE 20:03:13 10° NNW
CZ-4 R/B 4.2 19:59:12 10° W 19:59:47 10° W 20:00:23 10° WNW
CZ-4B R/B 2.3 19:58:30 23° SSE 20:00:29 86° WSW 20:03:53 10° NNW
Cosmos 1544 Rocket 4.4 19:58:37 22° SE 20:00:36 33° E 20:04:30 10° NNE
Cosmos 1782 2.4 19:59:06 14° S 20:02:00 89° WNW 20:05:33 10° N
Cosmos 1933 4.3 20:09:27 24° ESE 20:10:22 27° E 20:13:39 10° NNE
Cosmos 1802 Rocket 4.4 20:05:51 10° SSW 20:12:00 64° WNW 20:18:08 10° N
Cosmos 2084 Rocket 3.4 20:08:04 10° NW 20:12:17 82° NE 20:14:32 27° SE
Cosmos 1833 Rocket 4.2 20:07:04 10° WSW 20:12:18 39° NW 20:17:35 10° NNE
Terra 4.1 20:10:27 10° SW 20:13:49 19° W 20:17:14 10° NW
Cosmos 1758 Rocket 3.7 20:10:06 10° N 20:14:27 62° ENE 20:16:41 27° SSE
IRS-1C Rocket 4.1 20:10:56 20° SSE 20:14:40 85° WSW 20:19:59 10° NNW
Gbstr 26 Del rocket 3.6 20:12:25 10° WNW 20:17:06 43° SSW 20:18:53 28° SSE
Cosmos 2360 Rocket 3.5 20:13:18 10° NNW 20:18:21 31° NE 20:22:30 14° ESE
NOSS 3-3 (C) 4.2 20:15:34 20° S 20:18:39 37° ESE 20:24:12 10° NE
Helios 1B rocket 4.0 20:17:54 16° E 20:19:06 18° ENE 20:21:34 10° NNE
CZ-2C R/B 1.9 20:23:39 45° S 20:24:20 72° WSW 20:27:08 10° NNW
Cosmos 1743 4.3 20:24:11 10° NW 20:26:33 21° W 20:28:34 12° SW
Cosmos 2237 4.2 20:22:07 10° NNW 20:27:53 80° WSW 20:31:12 26° SSE
Geosat 4.2 20:24:48 10° NE 20:29:40 48° ESE 20:32:22 24° S
NOSS 3-4 (A) 4.3 20:26:05 10° NW 20:32:21 53° NE 20:38:36 15° ESE
NOSS 3-4 (C) 4.3 20:26:40 10° NW 20:32:59 53° NE 20:39:16 15° ESE
Cosmos 44 Rocket 3.8 20:27:55 10° SW 20:32:59 67° NW 20:38:11 10° NE
ISS -3.7 20:31:09 10° SW 20:34:25 53° SSE 20:35:05 44° ESE
Ariane Rocket 3.4 20:32:21 21° S 20:35:37 58° W 20:40:37 10° NNW
Cosmos 2219 Rocket 3.7 20:31:01 10° NNW 20:35:53 28° NE 20:40:07 13° E
Cosmos 1602 Rocket 3.6 20:35:51 10° N 20:40:08 65° ENE 20:41:43 37° SSE
ATLAS 2AS CENTAUR R/B 4.2 20:36:11 10° W 20:42:34 38° NNW 20:48:53 10° NE
Cosmos 2369 4.1 20:37:43 10° NW 20:43:18 56° WSW 20:46:24 26° S
Cosmos 2322 Rocket 2.8 20:40:35 10° NNW 20:46:03 47° NE 20:49:17 23° ESE
Cosmos 2082 Rocket 2.3 20:42:17 10° SSW 20:48:00 80° WNW 20:53:46 10° NNE
Cosmos 1437 Rocket 2.4 20:47:59 52° SSE 20:48:39 69° E 20:52:12 10° NNE
USA 305 2.6 20:46:56 10° WNW 20:50:51 50° SW 20:51:08 49° SSW
Cosmos 1891 Rocket 4.4 20:46:59 24° S 20:50:56 84° E 20:57:02 10° N
Cosmos 909 Rocket 3.9 20:44:39 10° SSW 20:50:57 80° SE 20:57:29 10° NE
Cosmos 2151 3.0 20:47:15 10° NNW 20:51:22 70° W 20:52:53 37° S
USA 234 3.8 20:47:25 10° ENE 20:53:19 35° SE 20:55:31 28° SSE
Meteor 1-5 Rocket 4.3 20:49:45 10° N 20:55:23 68° ENE 20:58:02 33° SSE
Cosmos 1626 Rocket 4.3 20:53:53 10° NNW 20:58:02 45° W 21:00:05 26° SSW
Cosmos 1607 4.1 20:53:18 10° SW 20:59:28 77° NW 21:05:47 10° NE
Okean O Rocket 4.2 20:59:51 10° WSW 21:01:33 12° W 21:03:15 10° WNW
Cosmos 2278 3.7 20:59:28 10° NNW 21:05:14 81° ENE 21:07:47 35° SE
Cosmos 1503 Rocket 4.5 21:01:30 10° NNW 21:06:35 51° ENE 21:08:48 31° ESE
Cosmos 1777 Rocket 4.2 21:01:48 10° NNW 21:07:02 64° ENE 21:09:08 35° SE
Okean 1-7 Rocket 3.5 21:04:06 10° N 21:08:34 78° E 21:09:50 46° SSE
Cosmos 1992 Rocket 4.2 21:05:58 17° SW 21:10:01 71° WNW 21:15:15 10° NNE
CZ-4C R/B 3.2 21:06:22 10° WSW 21:10:41 42° NNW 21:16:15 10° NE
IKONOS-2 4.3 21:06:42 10° NNE 21:10:51 74° ESE 21:11:49 50° S
COSMOS 2406 3.1 21:07:29 24° SSW 21:11:04 80° ESE 21:16:50 10° NNE
Cosmos-2242 4.3 21:11:13 24° E 21:11:25 25° E 21:14:47 10° NE
Helios 1A 2.7 21:08:25 10° NNE 21:12:21 72° ESE 21:13:02 56° SSE
SL-16 R/B 2.2 21:06:59 10° NNW 21:12:40 75° WSW 21:14:58 37° SSE
Nadezhda 4 Rocket 3.9 21:09:21 10° N 21:15:30 89° E 21:18:18 35° S
Cosmos 1606 Rocket 3.5 21:15:48 50° SSE 21:16:45 67° E 21:21:03 10° NNE
Cosmos 1805 2.8 21:14:42 10° NNW 21:17:57 66° W 21:18:02 65° WSW
Cosmos 1486 Rocket 3.9 21:13:27 10° NNW 21:18:44 86° ENE 21:20:37 41° SSE
USA 290 4.4 21:24:21 17° ENE 21:24:21 17° ENE 21:25:31 10° NE
Cosmos 2333 Rocket 2.3 21:19:54 10° NW 21:25:34 68° WSW 21:27:39 39° S
CSL-04 DEB 3.8 21:26:07 77° SE 21:26:22 86° ENE 21:29:58 10° NNW
Cosmos 2098 Rocket 3.4 21:25:32 36° SSW 21:27:39 75° W 21:32:16 10° N
SeaSat 1 4.2 21:24:17 12° E 21:27:52 26° NE 21:31:55 10° NNW
Cosmos 1766 3.9 21:25:47 10° N 21:28:33 33° ENE 21:28:33 33° ENE
Cosmos 1726 Rocket 3.3 21:29:27 59° SE 21:29:54 65° E 21:33:55 10° NNE
Cosmos 2195 Rocket 4.4 21:27:19 10° N 21:33:38 85° E 21:36:10 39° SSE
Cosmos 1076 Rocket 3.4 21:30:00 10° N 21:34:18 87° ENE 21:35:03 60° SSE
Cosmos 1980 Rocket 4.5 21:32:48 10° WNW 21:35:14 13° W 21:37:40 10° WSW
CZ-2C R/B 4.1 21:34:56 18° ESE 21:37:41 27° ENE 21:42:01 10° N
Cosmos 2026 Rocket 4.0 21:33:45 10° N 21:40:10 81° E 21:42:46 39° SSE
NOSS 3-3 (A) 4.1 21:35:54 10° WSW 21:41:12 65° NW 21:47:39 10° NE
Spot 4 3.8 21:44:25 50° SE 21:45:37 76° ENE 21:50:25 10° NNW
DNEPR-1 R/B 4.3 21:41:44 10° NW 21:47:08 70° SW 21:49:20 41° SSE
Aureole 1 Rocket 4.2 21:44:00 10° NNW 21:49:05 53° ENE 21:51:56 30° ESE
Okean 1 3.1 21:49:59 64° W 21:50:07 65° WNW 21:53:42 10° N
Helios 1B rocket 2.8 21:51:51 41° W 21:51:51 41° W 21:55:10 10° NNW
SAR-Lupe-2 3.8 21:53:25 54° NE 21:53:25 54° NE 21:56:30 10° N
Cosmos 1975 4.2 21:50:36 10° NNE 21:53:38 24° ENE 21:54:01 23° E
Cosmos 2333 4.2 21:50:03 10° NNW 21:55:46 79° WSW 21:57:35 45° SSE
Cosmos 44 4.3 21:51:22 10° NW 21:56:39 49° NE 21:59:53 22° ESE
Cosmos 1464 Rocket 4.4 21:53:23 26° SW 21:56:47 55° WNW 22:02:51 10° N
Cosmos 2360 Rocket 2.3 21:57:07 10° NW 22:02:43 60° WSW 22:04:14 45° SSW
Cosmos 1271 Rocket 4.1 22:04:45 25° ENE 22:04:45 25° ENE 22:07:01 10° NE
Meteor 1-26 Rocket 4.1 22:03:06 47° S 22:04:46 84° E 22:10:24 10° NNE
RESURS DK-1 4.2 22:03:43 10° NNW 22:07:04 25° NE 22:09:02 17° E
ALOS 2 2.5 22:06:32 64° S 22:07:10 82° WSW 22:11:36 10° NNW
ARIANE 5 R/B 2.6 22:07:11 58° SSW 22:07:50 67° WSW 22:12:17 10° NNW
NOSS 3-3 (C) 4.5 22:03:55 10° WSW 22:09:15 55° NW 22:15:45 10° NE
Cosmos 1953 Rocket 3.9 22:05:56 10° NNW 22:10:12 52° W 22:10:47 48° SW
ISS -1.1 22:07:52 10° W 22:08:15 13° W 22:08:15 13° W
GP-B 4.1 22:07:29 10° NNE 22:11:27 32° E 22:12:04 31° E
Cosmos 468 Rocket 4.5 22:11:08 41° SE 22:11:54 44° ESE 22:16:53 10° NE
Cosmos 2058 Rocket 2.9 22:11:46 69° S 22:12:17 86° E 22:16:39 10° N
BREEZE-M R/B 4.0 22:11:09 10° WNW 22:18:21 79° SSW 22:24:18 10° ESE
Cosmos 1092 Rocket 4.1 22:12:35 10° NNW 22:18:41 66° W 22:20:51 41° SSW
CZ-2C R/B 3.9 22:14:40 10° N 22:19:04 63° WNW 22:20:05 47° SW
Helios 1B 4.3 22:15:09 10° NNE 22:19:26 78° ESE 22:19:49 70° SSE
Cosmos 2219 Rocket 2.2 22:14:41 10° NNW 22:20:19 69° WSW 22:21:47 49° S
NOSS 3-4 (A) 4.1 22:16:53 10° NW 22:23:25 53° SW 22:26:00 38° S
NOSS 3-4 (C) 4.1 22:17:28 10° NW 22:24:03 54° SW 22:26:40 38° S
Cosmos 540 Rocket 3.4 22:23:21 51° SSW 22:24:41 90° NW 22:29:53 10° NNE
PSLV R/B 3.3 22:21:01 10° NNE 22:25:16 89° ESE 22:25:44 71° S
Meteor 1-14 Rocket 4.2 22:20:07 10° N 22:25:43 72° ENE 22:27:27 44° SSE
Cosmos 1898 Rocket 3.9 22:21:11 10° NNW 22:26:17 56° ENE 22:28:15 35° ESE
Cosmos 1461 3.3 22:26:32 41° W 22:27:18 48° NW 22:30:54 10° NNE
Cosmos 2322 Rocket 3.0 22:24:51 10° NW 22:29:59 36° WSW 22:31:03 33° SW
MetOp-A 3.8 22:29:01 54° SSE 22:30:12 88° ENE 22:35:06 10° NNW
Cosmos 2082 Rocket 4.5 22:28:39 10° W 22:33:00 22° NW 22:37:21 10° NNE
SL-08 ROCKET BODY 4.4 22:30:11 10° NNW 22:36:21 79° W 22:38:25 44° S
USA 234 3.2 22:30:15 10° ENE 22:36:51 89° SSE 22:42:49 13° WSW
Cosmos 1707 3.8 22:38:21 27° NW 22:38:21 27° NW 22:40:14 10° N
Cosmos 1536 3.4 22:34:52 10° NNW 22:38:06 41° W 22:38:06 41° W
Meteor 2-9 Rocket 4.0 22:34:37 10° NNW 22:39:59 86° ENE 22:41:29 50° SSE
ACS3 Solar Sail 3.0 22:36:42 10° NNE 22:41:49 28° E 22:44:07 22° SE
COSMOS 2428 2.9 22:38:16 10° NNW 22:44:00 69° ENE 22:46:33 33° SE
Cosmos 2237 Rocket 3.4 22:42:06 10° NNW 22:47:25 38° NE 22:52:25 11° ESE
Cosmos 1763 Rocket 4.0 22:45:39 34° WSW 22:47:45 56° WNW 22:52:58 10° NNE
TSX-5 4.0 22:44:58 10° NNW 22:47:24 50° NNW 22:47:24 50° NNW
Cosmos-2242 4.0 22:47:28 32° W 22:48:14 35° WNW 22:52:04 10° N
CZ-2C R/B 3.2 22:44:25 10° NNE 22:50:07 83° ESE 22:51:56 46° S
SL-16 R/B 4.2 22:53:07 10° WNW 22:55:45 13° W 22:56:47 13° WSW
USA 290 4.0 22:56:48 24° WNW 22:56:59 25° NW 22:59:39 10° N
CZ-4C R/B 4.1 22:55:10 10° NNE 22:57:47 33° E 22:57:47 33° E
Cosmos 1238 Rocket 4.0 23:01:17 28° E 23:01:30 28° E 23:04:55 10° NNE
Cosmos 2227 Rocket 4.4 23:00:04 10° ESE 23:02:08 12° E 23:04:21 10° ENE
Cosmos 1766 Rocket 4.4 22:58:27 10° N 23:02:32 41° ENE 23:03:43 33° ESE
Cosmos 2279 Rocket 4.2 23:01:48 38° SW 23:04:14 64° WNW 23:10:28 10° N
SeaSat 1 2.4 23:03:53 54° S 23:04:53 70° WSW 23:09:48 10° NW
Cosmos 1470 3.6 23:01:48 10° NNW 23:04:12 33° WNW 23:04:12 33° WNW
Intercosmos 24 3.8 23:04:14 10° N 23:08:45 71° ENE 23:09:12 63° SE
Cosmos 2333 Rocket 4.3 23:06:41 10° WNW 23:08:46 12° W 23:09:39 12° WSW
Cosmos 2221 2.4 23:09:57 61° WSW 23:10:22 66° WNW 23:14:32 10° N
Cosmos 1842 4.3 23:13:51 27° WNW 23:13:51 27° WNW 23:16:19 10° N
Cosmos 841 Rocket 3.5 23:12:28 51° S 23:13:42 70° ESE 23:18:55 10° NNE
CZ-2C R/B 2.8 23:16:22 45° SSW 23:17:36 56° W 23:22:47 10° NNW
Alouette 2 Rocket 3.9 23:15:23 10° N 23:18:53 50° ENE 23:19:46 40° ESE
Meteor 1-19 Rocket 4.3 23:17:12 43° SSW 23:19:07 75° WNW 23:25:02 10° N
BREEZE-M DEB (TANK) 3.4 23:13:47 10° W 23:19:44 57° SSW 23:25:09 10° ESE
NOSS 0 Rocket 3.8 23:19:02 10° NNW 23:25:14 82° WSW 23:28:04 34° SSE
Cosmos 1975 3.9 23:25:23 10° NNW 23:28:17 29° W 23:28:17 29° W
DELTA 2 DEB (DPAF) 3.5 23:25:16 10° NNE 23:28:50 70° ESE 23:28:51 70° ESE
Cosmos 1655 Rocket 4.1 23:23:34 10° N 23:29:50 76° ENE 23:32:53 32° SSE
Cosmos 2266 Rocket 4.1 23:26:32 10° NNW 23:32:26 57° W 23:34:28 39° SSW
Cosmos 2322 3.9 23:28:27 10° NW 23:33:57 51° WSW 23:35:16 42° SSW
Cosmos 1812 Rocket 4.0 23:34:01 44° WSW 23:34:50 51° WNW 23:39:09 10° N
Cosmos 2297 Rocket 2.7 23:33:58 36° SSE 23:35:45 49° ESE 23:41:10 10° NE
Cosmos 44 4.0 23:32:43 10° NW 23:37:44 40° WSW 23:38:08 39° SW
Cosmos 858 Rocket 4.4 23:32:41 10° NNW 23:37:53 77° WSW 23:39:32 44° S
Cosmos 1271 Rocket 4.1 23:38:07 23° WNW 23:38:17 23° WNW 23:41:04 10° NNW
Meteor 2-20 Rocket 4.2 23:40:52 40° S 23:43:07 87° E 23:48:53 10° N
RESURS DK-1 2.8 23:40:47 10° NW 23:44:13 43° W 23:44:13 43° W
Cosmos 1937 Rocket 3.7 23:39:44 10° NNW 23:44:42 49° WSW 23:45:41 43° SW
Cosmos 2360 Rocket 4.4 23:44:50 10° W 23:45:29 10° W 23:45:57 10° W
Lacrosse 4 Rocket 2.9 23:46:25 21° ESE 23:46:52 22° ESE 23:49:59 10° ENE
Meteor 1-11 Rocket 4.3 23:42:32 10° NNW 23:47:56 44° W 23:49:32 35° SW
ISS -1.3 23:50:54 14° ESE 23:50:54 14° ESE 23:51:28 10° ESE
GP-B 4.2 23:44:36 10° NNW 23:48:24 29° WNW 23:49:14 27° W
NOSS 8 (H) 4.5 23:47:24 10° NW 23:49:51 60° NNW 23:49:51 60° NNW
Cosmos 1066 Rocket 4.4 23:49:22 34° SSE 23:51:33 61° E 23:56:56 10° NNE
